Theta_e
314 314 314 314 313 313 312 312 311 312 312 312 312 311 311 312 312 312 313 313 312 311 311 311 310 309 304 295 294 306 309 306 304 301 297 295 292 292 288 289 290 288 289 291 291 291 290
314 313 313 313 313 312 311 312 311 312 312 312 311 311 311 311 312 312 313 312 310 310 311 309 309 309 300 290 303 306 302 301 300 298 296 296 293 294 289 289 288 290 289 289 290 290 290
314 313 313 313 313 312 311 312 312 312 312 312 311 311 311 311 311 312 311 309 309 310 309 309 310 305 297 292 304 303 300 299 299 298 294 297 297 293 292 288 292 290 285 287 288 289 289
315 314 313 312 313 312 312 311 311 311 312 311 311 310 311 311 311 311 309 308 306 308 309 310 308 303 293 302 303 300 300 298 299 300 297 299 298 294 291 292 289 286 286 281 288 289 289
316 315 314 313 312 312 312 311 311 311 312 311 310 310 310 310 311 309 308 306 306 308 309 310 303 300 291 301 296 299 299 294 296 298 298 297 296 291 290 286 284 286 279 281 283 289 288
317 316 315 314 313 312 312 312 311 311 311 311 310 310 310 310 309 307 306 305 302 304 301 302 299 295 295 291 296 297 299 297 293 294 293 292 291 287 288 284 276 278 278 280 280 286 287
319 317 315 314 313 312 312 312 311 311 311 310 310 310 310 309 308 305 305 301 298 298 297 292 291 291 292 296 297 295 296 295 294 292 285 289 285 281 282 284 283 281 280 279 283 286 284
320 319 317 315 314 313 312 312 311 311 311 310 309 309 309 309 305 304 304 297 295 296 290 293 293 293 295 294 289 292 296 289 289 284 287 286 281 284 286 285 283 281 279 278 282 285 283
320 319 318 316 315 314 313 312 312 311 310 310 309 309 309 308 305 302 297 296 301 299 292 289 291 290 290 293 288 289 292 289 286 284 283 281 283 286 284 283 280 279 277 277 276 280 281
320 319 318 317 316 315 313 312 312 311 310 310 309 309 308 306 301 299 295 298 302 301 290 286 288 290 292 292 287 293 293 289 287 282 283 282 286 283 282 281 281 275 281 278 276 274 272
319 319 318 317 316 315 314 313 312 311 310 310 309 308 307 303 300 296 296 300 302 298 285 287 287 293 292 288 287 289 294 290 283 283 283 281 282 281 279 280 282 277 280 278 277 274 274
320 319 318 317 316 315 314 313 312 311 310 310 309 308 305 303 302 298 300 301 299 287 284 284 287 285 286 288 286 289 289 292 288 284 285 283 286 284 282 283 282 281 278 280 281 278 272
319 318 317 317 316 315 314 313 312 311 310 310 308 306 303 303 298 299 301 297 287 285 288 284 281 284 284 283 284 285 284 283 279 276 277 282 281 284 285 279 281 279 275 273 272 272 270
320 318 318 317 316 315 314 313 312 311 310 309 307 301 301 299 300 300 297 295 285 281 283 283 283 283 281 282 283 283 283 281 283 280 277 275 274 280 284 279 275 276 274 268 265 267 270
319 318 317 317 316 315 314 313 312 311 310 307 301 303 302 302 299 299 296 286 284 284 281 281 283 282 283 282 282 283 283 280 281 281 274 274 276 283 282 283 279 274 271 276 270 272 270
319 318 317 316 315 315 314 313 312 311 309 304 301 299 298 297 297 295 291 285 283 282 283 282 280 280 278 279 280 281 281 283 281 283 283 279 272 282 282 283 280 276 277 270 273 266 267
318 318 317 316 315 314 314 313 312 311 308 301 298 293 297 296 295 296 284 284 280 283 284 281 280 279 278 278 279 279 281 283 284 283 284 281 276 279 282 276 272 273 271 273 272 271 267
318 318 317 316 315 314 313 313 312 311 306 299 297 287 296 295 289 286 285 283 282 282 284 284 283 281 279 278 278 278 279 282 285 284 279 282 277 275 276 281 280 276 271 272 270 267 269
317 317 316 316 315 314 313 313 312 310 304 299 296 296 297 296 286 285 280 281 283 282 282 282 281 283 280 278 276 277 281 285 285 283 280 282 279 275 276 277 279 274 273 272 272 272 266
313 316 316 316 315 314 313 312 311 311 306 299 293 286 290 291 290 287 284 283 280 284 283 283 283 283 278 276 278 277 279 283 285 284 283 283 279 275 272 273 275 271 271 272 271 270 267
311 313 316 315 315 314 312 312 311 310 304 297 293 286 284 285 287 286 286 283 281 279 283 284 282 282 280 276 275 275 280 282 284 284 283 281 277 275 276 277 277 273 271 269 267 267 267
312 312 315 315 314 313 312 312 311 309 302 296 290 288 285 284 285 285 284 283 282 281 282 280 279 282 280 277 281 277 279 281 280 283 281 281 279 275 274 276 275 276 273 272 269 269 268
310 312 313 315 314 312 312 311 311 307 303 296 290 290 295 283 284 285 287 283 282 283 283 283 283 281 277 280 283 284 284 283 282 279 278 279 278 277 278 278 276 273 273 271 271 270 269
308 311 312 314 314 312 312 311 310 307 303 298 293 293 294 285 286 285 283 283 282 282 281 282 283 281 283 286 284 283 282 282 283 282 282 277 276 277 280 279 273 279 278 275 271 271 271
308 311 311 311 313 312 312 311 310 307 302 297 293 294 295 286 289 282 283 283 282 283 281 282 283 285 286 283 281 281 280 278 277 280 281 280 278 279 280 277 279 281 279 277 275 274 273
308 310 310 309 312 312 311 311 310 308 302 296 294 295 294 288 287 289 284 283 283 282 279 280 284 286 284 283 281 280 283 278 280 277 282 280 278 279 280 277 275 282 279 279 278 276 275
307 307 309 309 309 312 311 310 310 308 303 299 292 294 295 288 285 286 287 283 283 282 283 279 281 281 282 281 281 282 284 272 281 279 276 278 278 280 280 280 282 281 279 280 277 279 277
307 306 307 309 308 311 311 310 309 307 304 299 291 292 293 287 284 284 284 283 281 283 284 280 282 280 280 279 282 283 280 279 276 280 280 281 281 280 277 279 278 280 278 278 279 276 274
306 306 307 308 308 309 311 310 309 306 303 299 291 291 291 286 283 286 285 285 284 284 284 282 283 282 285 283 281 281 281 277 278 284 279 281 282 283 282 284 279 280 278 277 277 276 276
Wind_Speed
1 1 0 2 2 2 3 5 5 7 9 10 12 14 15 16 18 19 19 18 17 17 10 4 2 1 4 4 3 4 9 11 11 7 9 9 9 8 9 8 11 17 18 19 17 17 19
3 2 1 2 2 2 4 5 6 7 9 11 13 15 16 17 19 20 19 17 19 9 4 3 2 2 0 1 3 5 11 9 10 11 11 9 8 10 12 12 12 11 16 18 18 20 22
5 4 2 3 3 2 3 5 6 7 9 11 12 14 16 18 20 21 18 19 11 4 3 2 2 2 3 5 3 9 10 9 6 14 14 13 8 9 7 11 6 11 18 20 20 20 17
7 6 5 4 4 4 4 5 6 8 9 10 12 14 16 18 21 20 20 15 4 2 3 2 4 1 3 2 6 10 12 13 15 11 6 7 6 9 10 10 15 18 19 15 6 8 14
10 8 7 6 5 5 4 6 6 7 9 10 12 14 16 18 20 19 20 6 3 3 1 2 2 3 4 3 15 10 11 16 16 0 2 2 4 6 4 9 13 9 10 16 22 17 17
11 10 8 7 7 6 4 6 6 7 8 10 12 14 16 18 18 19 15 5 2 5 4 2 3 4 3 11 12 10 18 15 4 8 4 2 4 8 5 7 11 17 20 21 22 19 16
13 11 10 8 9 6 6 6 6 7 9 9 11 14 16 17 14 17 9 4 4 5 9 6 3 3 7 12 2 14 19 15 6 5 8 5 6 10 14 13 14 16 19 24 24 23 14
13 12 12 10 9 6 6 6 6 8 9 9 11 13 16 17 4 13 7 5 4 3 1 1 3 4 2 7 5 18 20 11 7 9 13 2 5 9 9 10 14 22 25 23 24 16 9
14 14 13 11 10 7 6 7 7 8 9 9 10 13 16 17 2 2 8 6 4 1 4 2 1 3 5 7 5 16 19 11 8 10 11 3 7 10 10 15 19 21 24 17 21 23 26
14 14 13 11 10 8 7 7 7 8 9 9 10 11 15 17 5 2 3 5 1 2 2 8 4 5 7 4 2 11 12 8 8 11 10 3 8 12 14 17 23 20 18 25 25 14 6
15 15 14 12 10 9 8 7 7 8 9 9 9 10 12 9 5 2 5 2 3 4 2 8 4 2 5 10 9 16 12 8 10 12 5 8 11 16 14 20 25 16 28 24 21 14 10
17 16 14 11 12 11 9 9 9 9 9 8 8 9 11 3 1 2 1 4 4 3 4 5 3 10 10 10 6 12 14 13 1 5 7 7 8 6 12 22 19 27 22 14 6 5 4
19 18 17 16 15 13 11 10 9 9 9 8 7 8 6 2 3 1 4 4 4 6 4 8 6 9 11 11 6 14 13 19 16 11 13 13 0 10 16 21 10 21 19 4 2 4 6
22 21 19 17 14 14 12 11 10 9 8 6 7 3 1 2 1 3 4 2 7 1 3 3 6 10 6 11 5 13 10 14 16 13 10 9 4 12 11 11 19 15 12 6 7 6 6
24 21 20 18 15 15 13 12 10 9 6 3 2 2 2 2 1 3 4 6 2 1 2 7 7 3 4 5 7 9 12 11 9 12 9 8 5 7 6 10 20 12 10 10 6 7 4
22 21 20 19 17 16 13 12 11 9 5 1 3 3 2 3 2 4 4 3 2 1 1 1 4 3 5 8 10 9 12 6 9 13 6 5 9 4 6 7 19 8 10 4 4 8 6
20 22 21 20 18 16 14 13 12 9 6 2 2 3 3 1 3 1 4 3 2 2 0 2 2 2 2 4 7 6 8 2 10 12 8 4 3 11 4 12 20 13 8 6 3 5 6
17 25 23 21 19 18 17 15 12 10 8 3 1 2 3 1 2 2 3 4 2 3 2 2 1 1 0 2 5 3 5 4 10 9 8 4 4 7 3 5 11 20 12 6 5 5 4
16 21 23 22 20 19 18 16 14 14 13 2 2 2 2 2 3 2 2 3 2 3 3 3 2 1 2 1 4 3 4 3 7 10 7 7 6 8 1 5 11 9 20 8 1 3 7
17 16 20 23 21 20 19 17 16 15 13 2 1 1 3 3 1 5 5 3 4 1 2 2 1 2 2 2 4 6 4 1 5 8 5 3 4 5 6 2 5 13 16 16 2 3 4
15 19 18 22 22 21 20 19 18 16 15 3 1 2 1 2 0 3 2 5 5 4 3 4 3 5 3 2 2 4 4 4 4 6 2 3 2 2 3 4 2 9 13 12 10 6 4
12 18 15 20 22 22 22 21 20 19 15 3 4 4 1 2 2 5 2 6 6 4 7 4 4 4 5 4 3 2 3 3 3 5 4 3 1 2 4 6 7 9 13 11 7 7 4
15 15 16 16 21 23 23 23 21 22 14 3 2 1 1 1 2 2 3 6 6 6 4 1 4 4 3 6 6 5 6 7 5 4 4 4 3 3 6 3 4 1 7 7 5 6 3
14 17 16 15 22 23 24 24 24 24 14 2 3 3 2 2 2 3 5 3 5 4 2 3 4 2 3 2 1 2 3 6 6 6 5 4 1 1 4 6 7 2 6 8 5 3 4
14 16 13 14 21 26 26 26 27 25 16 3 2 2 3 3 2 3 6 4 6 3 2 2 4 3 4 1 1 4 2 2 3 5 5 5 3 0 2 4 4 3 7 4 3 4 2
14 15 12 10 15 22 26 28 27 25 19 4 2 0 2 6 6 4 5 5 4 4 3 2 3 2 2 1 1 2 3 2 2 3 3 5 3 3 2 2 2 3 5 5 2 3 5
14 13 14 11 12 22 25 28 27 25 21 5 2 1 2 4 2 2 3 4 4 2 3 3 5 3 2 2 3 3 2 2 2 3 4 3 3 2 2 2 2 3 7 6 3 5 8
17 14 16 12 10 18 26 27 29 27 24 6 2 0 2 4 2 1 1 3 3 3 3 5 4 3 2 3 3 1 3 2 3 1 2 3 5 3 2 3 3 7 7 4 2 4 10
16 15 15 12 12 12 23 26 28 28 24 10 3 1 4 7 3 3 4 3 3 3 2 4 2 2 1 1 2 1 3 2 1 2 2 2 3 1 4 1 2 6 1 2 4 6 8
Wind_Direction
202 245 325 319 357 351 353 331 348 345 344 346 342 339 335 337 331 332 332 331 327 324 321 334 9 35 220 138 68 32 325 322 303 314 311 305 289 293 271 300 295 272 277 283 286 286 277
224 226 261 290 306 327 327 321 340 342 346 343 340 336 334 335 333 334 333 331 329 325 358 26 36 276 116 162 6 350 338 324 353 327 301 288 290 307 289 280 276 308 302 293 288 282 280
221 231 233 264 281 286 304 311 333 339 342 337 336 333 334 335 335 334 333 332 330 348 22 360 29 315 131 56 345 340 338 323 316 316 296 298 289 272 304 292 344 299 289 288 277 271 266
221 230 232 239 257 283 288 312 331 334 333 335 333 331 335 335 335 332 335 333 328 348 327 19 340 327 75 105 352 354 339 328 327 311 269 284 273 269 271 290 281 270 268 279 261 261 296
228 222 235 240 254 261 290 303 323 324 327 331 328 329 335 336 335 332 339 331 334 28 312 274 267 281 79 160 353 346 343 330 325 344 308 273 250 269 245 268 291 281 284 303 297 296 289
227 230 232 238 251 264 282 293 308 318 320 324 324 330 334 337 337 332 338 316 335 245 226 234 241 238 86 347 342 317 357 336 319 319 182 250 268 277 233 328 314 311 302 298 296 307 290
227 227 232 233 250 259 278 283 301 308 312 320 325 329 332 336 337 335 326 239 230 173 40 40 354 338 332 343 305 358 353 335 326 237 357 6 293 11 347 322 313 301 290 286 287 294 289
221 225 227 230 241 252 269 281 295 299 306 315 322 327 332 338 356 342 330 44 39 324 135 138 301 291 321 332 321 7 353 8 343 12 350 359 45 341 329 304 311 316 304 295 292 322 315
217 222 224 228 235 244 261 274 285 291 299 310 318 329 333 337 259 348 56 50 334 296 259 133 37 341 343 338 5 1 8 335 2 355 359 6 343 323 305 314 325 323 305 316 318 317 304
216 220 222 219 228 230 242 264 274 281 291 301 316 330 335 331 246 15 51 0 281 281 198 354 8 42 347 333 125 18 12 3 6 347 349 338 336 334 316 315 332 314 335 311 301 298 270
215 218 219 217 226 226 225 244 259 270 280 293 312 326 337 356 323 28 342 340 179 239 10 359 19 327 34 44 320 5 353 4 3 346 329 8 338 344 329 330 331 307 319 305 287 263 265
213 213 214 221 226 227 225 231 248 258 272 286 305 324 325 222 198 58 277 151 220 50 9 7 2 360 6 20 18 350 358 22 53 325 296 299 301 314 328 330 329 337 321 296 277 185 170
212 216 219 216 220 221 220 229 240 250 263 280 303 327 309 311 3 28 178 211 24 65 360 335 336 343 331 355 352 4 354 31 31 344 7 325 47 345 6 335 339 345 347 342 69 43 34
213 217 213 214 209 220 214 222 230 244 256 278 318 304 45 35 337 194 226 258 60 122 303 4 329 329 3 2 13 353 1 21 32 3 300 346 333 9 5 18 342 346 1 12 342 2 344
208 210 209 206 205 217 210 215 219 229 243 280 306 234 230 124 226 215 258 49 169 216 0 326 309 310 2 360 341 352 27 16 31 26 359 332 292 3 45 358 12 333 8 313 287 219 263
208 204 207 205 202 211 205 210 211 215 213 243 294 279 201 359 209 240 71 128 141 51 34 333 352 23 343 330 352 10 16 28 360 15 9 345 293 8 29 326 23 10 1 15 329 350 20
209 208 203 201 198 201 202 204 203 200 173 160 263 288 92 15 229 42 97 135 184 141 105 313 0 17 312 321 323 347 358 40 11 353 334 291 238 319 344 26 27 13 21 351 259 11 334
243 214 197 196 196 197 201 197 192 180 145 177 260 267 94 195 66 46 103 133 179 152 172 235 252 89 149 337 284 303 320 341 14 352 329 33 288 293 41 156 78 37 13 356 336 8 21
288 210 198 193 194 195 195 190 183 174 178 156 236 280 141 250 141 97 138 111 188 148 193 208 209 170 84 247 287 251 310 23 7 7 3 341 353 316 141 171 20 27 11 3 70 276 28
318 270 206 191 191 190 189 184 180 177 180 212 259 305 344 54 321 129 149 150 153 152 208 223 192 157 128 250 219 299 294 332 6 11 359 288 9 34 62 54 345 4 5 13 354 33 319
307 323 228 194 189 189 186 182 177 172 168 197 340 235 328 190 302 115 96 151 136 182 230 217 210 234 162 268 254 243 279 303 126 12 39 359 338 283 232 254 27 38 13 15 48 24 21
291 296 277 205 193 187 184 179 174 166 159 237 171 156 174 79 142 128 201 203 169 169 162 215 223 150 169 223 248 294 327 6 17 342 12 358 350 289 248 215 232 27 30 356 21 34 20
288 280 295 225 197 188 183 177 173 163 175 174 154 107 237 143 144 160 205 172 185 154 193 239 202 183 209 241 284 278 283 285 271 317 333 332 325 303 323 346 189 189 24 30 328 34 337
271 275 281 277 209 188 181 178 175 173 189 128 180 145 129 149 209 210 176 134 157 187 249 133 190 206 88 79 344 266 259 262 243 233 208 311 287 281 318 314 22 32 123 131 104 15 37
261 268 265 300 214 191 186 181 177 180 178 126 151 187 143 128 151 154 174 126 120 101 181 187 176 68 132 115 299 298 234 258 199 229 193 212 267 163 358 20 336 221 150 193 212 31 11
251 268 257 281 254 196 188 182 180 179 172 109 151 193 129 126 218 126 155 179 165 168 160 168 111 124 201 230 186 258 267 17 207 162 185 186 232 282 177 225 271 85 127 147 73 81 159
238 259 266 260 293 209 192 186 178 177 173 130 126 210 120 108 150 154 164 175 126 152 108 141 156 165 269 187 217 221 250 354 260 236 179 202 193 244 173 245 201 95 139 161 278 122 144
237 237 260 252 281 240 195 184 177 174 172 142 112 38 115 97 119 135 55 144 127 229 177 139 126 186 177 215 230 155 243 160 264 293 248 242 183 176 123 226 267 149 125 209 121 72 123
233 233 245 239 241 256 196 189 178 171 167 134 118 87 69 77 84 64 79 53 7 1 124 181 55 154 156 160 233 113 220 190 307 286 201 259 284 324 234 7 100 189 96 100 153 134 152